Location: Pasarilla del Rebollar
(40.6790°N, 5.0062°W)
Time: 11:11:07
(UTC+00:00)

Cosmos 1745 Rocket - Pass Details

Date: 22 April 2026
Orbit: 951 x 998 km, 83.0° (Epoch: 15 May)

Event Time Altitude Azimuth Distance (km) Brightness Sun altitude
Rises 04:54:57 0° 348° (NNW) 3,651 7.2 -7.3°
Reaches altitude 10° 04:57:30 10° 345° (NNW) 2,695 6.4 -6.8°
Maximum altitude 05:03:30 57° 268° (W) 1,110 4.1 -5.8°
Drops below altitude 10° 05:09:26 10° 191° (S) 2,666 6.0 -4.7°
Sets 05:11:57 0° 187° (S) 3,608 6.7 -4.3°
